Year,Month,Day,Hour,Minute,Value (Times are PST for temperature in C)
2016,04,21,08,15,13.50
2016,04,21,08,16,13.50
2016,04,21,08,17,13.50
2016,04,21,08,18,13.50
2016,04,21,08,19,13.50
2016,04,21,08,20,13.50
2016,04,21,08,21,13.50
2016,04,21,08,22,13.60
2016,04,21,08,23,13.60
2016,04,21,08,24,13.60
2016,04,21,08,25,13.60
2016,04,21,08,26,13.60
2016,04,21,08,27,13.60
2016,04,21,08,28,13.60
2016,04,21,08,29,13.70
2016,04,21,08,30,13.70
2016,04,21,08,31,13.70
2016,04,21,08,32,13.70
2016,04,21,08,33,13.80
2016,04,21,08,34,13.80
2016,04,21,08,35,13.80
2016,04,21,08,36,13.80
2016,04,21,08,37,13.80
2016,04,21,08,38,13.80
2016,04,21,08,39,13.80
2016,04,21,08,40,13.90
2016,04,21,08,41,13.80
2016,04,21,08,42,13.80
2016,04,21,08,43,13.80
2016,04,21,08,44,13.80
2016,04,21,08,45,13.90
2016,04,21,08,46,13.90
2016,04,21,08,47,13.90
2016,04,21,08,48,13.90
2016,04,21,08,49,13.90
2016,04,21,08,50,13.90
2016,04,21,08,51,13.90
2016,04,21,08,52,13.90
2016,04,21,08,53,13.90
2016,04,21,08,54,14.00
2016,04,21,08,55,14.00
2016,04,21,09,02,14.20
2016,04,21,09,03,14.20
2016,04,21,09,05,14.30
2016,04,21,09,06,14.40
2016,04,21,09,07,14.40
2016,04,21,09,08,14.50
2016,04,21,09,09,14.50
2016,04,21,09,10,14.60
2016,04,21,09,11,14.60
2016,04,21,09,12,14.70
2016,04,21,09,13,14.70
2016,04,21,09,14,14.70
2016,04,21,09,15,14.70
2016,04,21,09,16,14.70
2016,04,21,09,17,14.80
2016,04,21,09,18,14.90
2016,04,21,09,19,14.90
2016,04,21,09,20,14.90
2016,04,21,09,21,14.90
2016,04,21,09,22,15.00
2016,04,21,09,23,15.00
2016,04,21,09,24,15.00
2016,04,21,09,25,15.10
2016,04,21,09,26,15.20
2016,04,21,09,27,15.20
2016,04,21,09,28,15.20
2016,04,21,09,29,15.30
2016,04,21,09,30,15.40
2016,04,21,09,31,15.50
2016,04,21,09,32,15.50
2016,04,21,09,33,15.60
2016,04,21,09,34,15.70
2016,04,21,09,35,15.60
2016,04,21,09,36,15.60
2016,04,21,09,37,15.60
2016,04,21,09,38,15.60
2016,04,21,09,39,15.60
2016,04,21,09,40,15.60
2016,04,21,09,41,15.60
2016,04,21,09,42,15.60
2016,04,21,09,43,15.60
2016,04,21,09,44,15.60
2016,04,21,09,45,15.60
2016,04,21,09,46,15.60
2016,04,21,09,47,15.70
2016,04,21,09,48,15.70
2016,04,21,09,49,15.70
2016,04,21,09,50,15.70
2016,04,21,09,51,15.70
2016,04,21,09,52,15.70
2016,04,21,09,53,15.70
2016,04,21,09,54,15.70
2016,04,21,09,55,15.80
2016,04,21,09,56,15.80
2016,04,21,09,57,15.80
2016,04,21,09,58,15.90
2016,04,21,09,59,15.90
2016,04,21,10,00,15.90
2016,04,21,10,01,15.90
2016,04,21,10,02,15.90
2016,04,21,10,03,15.90
2016,04,21,10,04,15.90
2016,04,21,10,05,15.90
2016,04,21,10,06,15.90
2016,04,21,10,07,15.80
2016,04,21,10,08,15.80
2016,04,21,10,09,15.70
2016,04,21,10,10,15.70
2016,04,21,10,11,15.70
2016,04,21,10,12,15.70
2016,04,21,10,13,15.70
2016,04,21,10,14,15.60
2016,04,21,10,15,15.60
2016,04,21,10,16,15.60
2016,04,21,10,17,15.60
2016,04,21,10,18,15.60
2016,04,21,10,19,15.60
2016,04,21,10,20,15.60
2016,04,21,10,21,15.70
2016,04,21,10,22,15.70
2016,04,21,10,23,15.70
2016,04,21,10,24,15.70
2016,04,21,10,25,15.70
2016,04,21,10,26,15.60
2016,04,21,10,27,15.60
2016,04,21,10,28,15.60
2016,04,21,10,29,15.60
2016,04,21,10,30,15.50
2016,04,21,10,31,15.50
2016,04,21,10,32,15.60
2016,04,21,10,33,15.60
2016,04,21,10,34,15.60
2016,04,21,10,35,15.60
2016,04,21,10,36,15.60
2016,04,21,10,37,15.50
2016,04,21,10,38,15.50
2016,04,21,10,39,15.40
2016,04,21,10,40,15.40
2016,04,21,10,41,15.40
2016,04,21,10,42,15.40
2016,04,21,10,43,15.30
2016,04,21,10,44,15.30
2016,04,21,10,45,15.20
2016,04,21,10,46,15.20
2016,04,21,10,47,15.20
2016,04,21,10,48,15.20
2016,04,21,10,49,15.20
2016,04,21,10,50,15.10
2016,04,21,10,51,15.20
2016,04,21,10,52,15.20
2016,04,21,10,53,15.20
2016,04,21,10,54,15.20
2016,04,21,10,55,15.20
2016,04,21,10,56,15.20
2016,04,21,10,57,15.30
2016,04,21,10,58,15.30
2016,04,21,10,59,15.40
2016,04,21,11,00,15.50
2016,04,21,11,01,15.50
2016,04,21,11,02,15.60
2016,04,21,11,03,15.70
2016,04,21,11,04,15.80
2016,04,21,11,05,15.80
2016,04,21,11,06,15.90
2016,04,21,11,07,15.90
2016,04,21,11,08,15.90
2016,04,21,11,09,15.90
2016,04,21,11,10,15.90
2016,04,21,11,11,15.90
2016,04,21,11,12,16.00
2016,04,21,11,13,16.00
2016,04,21,11,14,16.00
2016,04,21,11,15,16.00
2016,04,21,11,16,16.00
2016,04,21,11,17,16.00
2016,04,21,11,18,16.10
2016,04,21,11,19,16.10
2016,04,21,11,20,16.10
2016,04,21,11,21,16.10
2016,04,21,11,22,16.10
2016,04,21,11,23,16.10
2016,04,21,11,24,16.10
2016,04,21,11,25,16.10
2016,04,21,11,26,16.10
2016,04,21,11,27,16.10
2016,04,21,11,28,16.10
2016,04,21,11,29,16.10
2016,04,21,11,30,16.10
2016,04,21,11,31,16.00
2016,04,21,11,32,16.00
2016,04,21,11,33,16.00
2016,04,21,11,34,16.00
2016,04,21,11,35,15.90
2016,04,21,11,36,15.90
2016,04,21,11,37,16.00
2016,04,21,11,38,16.00
2016,04,21,11,39,16.00
2016,04,21,11,40,16.10
2016,04,21,11,41,16.10
2016,04,21,11,42,16.10
2016,04,21,11,43,16.20
2016,04,21,11,44,16.20
2016,04,21,11,45,16.30
2016,04,21,11,46,16.30
2016,04,21,11,47,16.30
2016,04,21,11,48,16.30
2016,04,21,11,49,16.30
2016,04,21,11,50,16.30
2016,04,21,11,51,16.20
2016,04,21,11,52,16.20
2016,04,21,11,53,16.20
2016,04,21,11,54,16.20
2016,04,21,11,55,16.20
2016,04,21,11,56,16.20
2016,04,21,11,57,16.20
2016,04,21,11,58,16.20
2016,04,21,11,59,16.20
2016,04,21,12,00,16.20
2016,04,21,12,01,16.30
2016,04,21,12,02,16.30
2016,04,21,12,03,16.30
2016,04,21,12,04,16.30
2016,04,21,12,05,16.20
2016,04,21,12,06,16.20
2016,04,21,12,07,16.20
2016,04,21,12,08,16.20
2016,04,21,12,09,16.20
2016,04,21,12,10,16.20
2016,04,21,12,11,16.30
2016,04,21,12,12,16.30
2016,04,21,12,13,16.30
2016,04,21,12,14,16.40
2016,04,21,12,15,16.40
2016,04,21,12,16,16.40
2016,04,21,12,17,16.40
2016,04,21,12,18,16.40
2016,04,21,12,19,16.50
2016,04,21,12,20,16.50
2016,04,21,12,21,16.60
2016,04,21,12,22,16.60
2016,04,21,12,23,16.70
2016,04,21,12,24,16.80
2016,04,21,12,25,16.80
2016,04,21,12,26,16.80
2016,04,21,12,27,16.90
2016,04,21,12,28,16.90
2016,04,21,12,29,16.90
2016,04,21,12,30,17.00
2016,04,21,12,31,17.00
2016,04,21,12,32,17.00
2016,04,21,12,33,16.90
2016,04,21,12,34,16.90
2016,04,21,12,35,16.90
2016,04,21,12,36,17.00
2016,04,21,12,37,17.00
2016,04,21,12,38,17.10
2016,04,21,12,39,17.10
2016,04,21,12,40,17.10
2016,04,21,12,41,17.10
2016,04,21,12,42,17.10
2016,04,21,12,43,17.10
2016,04,21,12,44,17.10
2016,04,21,12,45,17.10
2016,04,21,12,46,17.10
2016,04,21,12,47,17.10
2016,04,21,12,48,17.10
2016,04,21,12,49,17.10
2016,04,21,12,50,17.00
2016,04,21,12,51,17.00
2016,04,21,12,52,16.90
2016,04,21,12,53,16.90
2016,04,21,12,54,17.00
2016,04,21,12,55,17.10
2016,04,21,12,56,17.20
2016,04,21,12,57,17.20
2016,04,21,12,58,17.20
2016,04,21,12,59,17.30
2016,04,21,13,00,17.30
2016,04,21,13,01,17.30
2016,04,21,13,02,17.30
2016,04,21,13,03,17.20
2016,04,21,13,04,17.20
2016,04,21,13,05,17.20
2016,04,21,13,06,17.20
2016,04,21,13,07,17.10
2016,04,21,13,08,17.10
2016,04,21,13,09,17.00
2016,04,21,13,10,16.90
2016,04,21,13,11,16.80
2016,04,21,13,12,16.70
2016,04,21,13,13,16.70
2016,04,21,13,14,16.70
2016,04,21,13,15,16.60
2016,04,21,13,16,16.60
2016,04,21,13,17,16.70
2016,04,21,13,18,16.70
2016,04,21,13,19,16.80
2016,04,21,13,20,16.90
2016,04,21,13,21,17.10
2016,04,21,13,22,17.20
2016,04,21,13,23,17.30
2016,04,21,13,24,17.40
2016,04,21,13,25,17.50
2016,04,21,13,26,17.60
2016,04,21,13,27,17.60
2016,04,21,13,28,17.60
2016,04,21,13,29,17.50
2016,04,21,13,30,17.50
2016,04,21,13,31,17.40
2016,04,21,13,32,17.30
2016,04,21,13,33,17.20
2016,04,21,13,34,17.00
2016,04,21,13,35,16.90
2016,04,21,13,36,16.80
2016,04,21,13,37,16.70
2016,04,21,13,38,16.70
2016,04,21,13,39,16.60
2016,04,21,13,40,16.60
2016,04,21,13,41,16.60
2016,04,21,13,42,16.60
2016,04,21,13,43,16.60
2016,04,21,13,44,16.60
2016,04,21,13,45,16.60
2016,04,21,13,46,16.60
2016,04,21,13,47,16.70
2016,04,21,13,48,16.70
2016,04,21,13,49,16.60
2016,04,21,13,50,16.60
2016,04,21,13,51,16.50
2016,04,21,13,52,16.50
2016,04,21,13,53,16.40
2016,04,21,13,54,16.40
2016,04,21,13,55,16.40
2016,04,21,13,56,16.40
2016,04,21,13,57,16.40
2016,04,21,13,58,16.30
2016,04,21,13,59,16.30
2016,04,21,14,00,16.40
2016,04,21,14,01,16.40
2016,04,21,14,02,16.50
2016,04,21,14,03,16.50
2016,04,21,14,04,16.60
2016,04,21,14,05,16.60
2016,04,21,14,06,16.60
2016,04,21,14,07,16.70
2016,04,21,14,08,16.80
2016,04,21,14,09,16.90
2016,04,21,14,10,16.90
2016,04,21,14,11,16.90
2016,04,21,14,12,16.90
2016,04,21,14,13,16.90
2016,04,21,14,14,17.00
2016,04,21,14,15,17.00
2016,04,21,14,16,17.10
2016,04,21,14,17,17.00
2016,04,21,14,18,17.00
2016,04,21,14,19,16.90
2016,04,21,14,20,16.90
2016,04,21,14,21,17.00
2016,04,21,14,22,17.00
2016,04,21,14,23,17.10
2016,04,21,14,24,17.10
2016,04,21,14,25,17.20
2016,04,21,14,26,17.20
2016,04,21,14,27,17.30
2016,04,21,14,28,17.30
2016,04,21,14,29,17.30
2016,04,21,14,30,17.40
2016,04,21,14,31,17.40
2016,04,21,14,32,17.40
2016,04,21,14,33,17.40
2016,04,21,14,34,17.40
2016,04,21,14,35,17.40
2016,04,21,14,36,17.30
2016,04,21,14,37,17.30
2016,04,21,14,38,17.20
2016,04,21,14,39,17.20
2016,04,21,14,40,17.20
2016,04,21,14,41,17.30
2016,04,21,14,42,17.30
2016,04,21,14,43,17.40
2016,04,21,14,44,17.40
2016,04,21,14,45,17.50
2016,04,21,14,46,17.50
2016,04,21,14,47,17.60
2016,04,21,14,48,17.60
2016,04,21,14,49,17.60
2016,04,21,14,50,17.70
2016,04,21,14,51,17.70
2016,04,21,14,52,17.80
2016,04,21,14,53,18.00
2016,04,21,14,54,18.10
2016,04,21,14,55,18.10
2016,04,21,14,56,18.10
2016,04,21,14,57,18.00
2016,04,21,14,58,17.90
2016,04,21,14,59,17.80
2016,04,21,15,00,17.70
2016,04,21,15,01,17.60
2016,04,21,15,02,17.60
2016,04,21,15,03,17.70
2016,04,21,15,04,17.80
2016,04,21,15,05,17.90
2016,04,21,15,06,18.10
2016,04,21,15,07,18.10
2016,04,21,15,08,18.10
2016,04,21,15,09,18.10
2016,04,21,15,10,18.10
2016,04,21,15,11,18.10
2016,04,21,15,12,18.10
2016,04,21,15,13,18.20
2016,04,21,15,14,18.20
2016,04,21,15,15,18.20
2016,04,21,15,16,18.30
2016,04,21,15,17,18.40
2016,04,21,15,18,18.50
2016,04,21,15,19,18.60
2016,04,21,15,20,18.80
2016,04,21,15,21,18.90
2016,04,21,15,22,19.10
2016,04,21,15,23,19.20
2016,04,21,15,24,19.40
2016,04,21,15,25,19.50
2016,04,21,15,26,19.50
2016,04,21,15,27,19.60
2016,04,21,15,28,19.60
2016,04,21,15,29,19.60
2016,04,21,15,30,19.50
2016,04,21,15,31,19.50
2016,04,21,15,32,19.40
2016,04,21,15,33,19.30
2016,04,21,15,34,19.30
2016,04,21,15,35,19.20
2016,04,21,15,36,19.10
2016,04,21,15,37,19.10
2016,04,21,15,38,19.10
2016,04,21,15,39,19.10
2016,04,21,15,40,19.20
2016,04,21,15,41,19.20
2016,04,21,15,42,19.20
2016,04,21,15,43,19.20
2016,04,21,15,44,19.20
2016,04,21,15,45,19.20
2016,04,21,15,46,19.20
2016,04,21,15,47,19.20
2016,04,21,15,48,19.20
2016,04,21,15,49,19.10
2016,04,21,15,50,19.00
2016,04,21,15,51,18.80
2016,04,21,15,52,18.70
2016,04,21,15,53,18.60
2016,04,21,15,54,18.60
2016,04,21,15,55,18.60
2016,04,21,15,56,18.60
2016,04,21,15,57,18.60
2016,04,21,15,58,18.60
2016,04,21,15,59,18.60
2016,04,21,16,00,18.60
2016,04,21,16,01,18.60
2016,04,21,16,02,18.60
2016,04,21,16,03,18.60
2016,04,21,16,04,18.60
2016,04,21,16,05,18.60
2016,04,21,16,06,18.60
2016,04,21,16,07,18.50
2016,04,21,16,08,18.40
2016,04,21,16,09,18.20
2016,04,21,16,10,18.10
2016,04,21,16,11,18.00
2016,04,21,16,12,17.90
2016,04,21,16,13,17.90
2016,04,21,16,14,17.90
2016,04,21,16,15,17.90
2016,04,21,16,16,17.80
2016,04,21,16,17,17.80
2016,04,21,16,18,17.80
2016,04,21,16,19,17.80
2016,04,21,16,20,17.80
2016,04,21,16,21,17.80
2016,04,21,16,22,17.80
2016,04,21,16,23,17.80
2016,04,21,16,24,17.70
2016,04,21,16,25,17.60
2016,04,21,16,26,17.50
2016,04,21,16,27,17.40
2016,04,21,16,28,17.30
2016,04,21,16,29,17.20
2016,04,21,16,30,17.20
2016,04,21,16,31,17.20
2016,04,21,16,32,17.20
2016,04,21,16,33,17.20
2016,04,21,16,34,17.20
2016,04,21,16,35,17.20
2016,04,21,16,36,17.20
2016,04,21,16,37,17.20
2016,04,21,16,38,17.10
2016,04,21,16,39,17.10
2016,04,21,16,40,17.00
2016,04,21,16,41,17.00
2016,04,21,16,42,16.90
2016,04,21,16,43,16.90
2016,04,21,16,44,16.90
2016,04,21,16,45,17.00
2016,04,21,16,46,17.00
2016,04,21,16,47,17.00
2016,04,21,16,48,17.00
2016,04,21,16,49,17.00
2016,04,21,16,50,17.00
2016,04,21,16,51,17.00
2016,04,21,16,52,17.00
2016,04,21,16,53,17.00
2016,04,21,16,54,17.00
2016,04,21,16,55,17.10
2016,04,21,16,56,17.10
2016,04,21,16,57,17.10
2016,04,21,16,58,17.10
2016,04,21,16,59,17.20
2016,04,21,17,00,17.20
2016,04,21,17,01,17.20
2016,04,21,17,02,17.20
2016,04,21,17,03,17.20
2016,04,21,17,04,17.10
2016,04,21,17,05,17.00
2016,04,21,17,06,17.00
2016,04,21,17,07,16.90
2016,04,21,17,08,16.80
2016,04,21,17,09,16.80
2016,04,21,17,10,16.80
2016,04,21,17,11,16.80
2016,04,21,17,12,16.80
2016,04,21,17,13,16.80
2016,04,21,17,14,16.80
2016,04,21,17,15,16.80
2016,04,21,17,16,16.70
2016,04,21,17,17,16.60
2016,04,21,17,18,16.60
2016,04,21,17,19,16.60
2016,04,21,17,20,16.50
2016,04,21,17,21,16.40
2016,04,21,17,22,16.30
2016,04,21,17,23,16.20
2016,04,21,17,24,16.00
2016,04,21,17,25,15.90
2016,04,21,17,26,15.80
2016,04,21,17,27,15.80
2016,04,21,17,28,15.80
2016,04,21,17,29,15.70
2016,04,21,17,30,15.60
2016,04,21,17,31,15.60
2016,04,21,17,32,15.50
2016,04,21,17,33,15.40
2016,04,21,17,34,15.40
2016,04,21,17,35,15.30
2016,04,21,17,36,15.30
2016,04,21,17,37,15.30
2016,04,21,17,38,15.30
2016,04,21,17,39,15.30
2016,04,21,17,40,15.30
2016,04,21,17,41,15.30
2016,04,21,17,42,15.30
2016,04,21,17,43,15.30
2016,04,21,17,44,15.30
2016,04,21,17,45,15.40
2016,04,21,17,46,15.40
2016,04,21,17,47,15.40
2016,04,21,17,48,15.40
2016,04,21,17,49,15.50
2016,04,21,17,50,15.50
2016,04,21,17,51,15.50
2016,04,21,17,52,15.50
2016,04,21,17,53,15.60
2016,04,21,17,54,15.60
2016,04,21,17,55,15.50
2016,04,21,17,56,15.50
2016,04,21,17,57,15.50
2016,04,21,17,58,15.40
2016,04,21,17,59,15.40
2016,04,21,18,00,15.40
2016,04,21,18,01,15.30
2016,04,21,18,02,15.30
2016,04,21,18,03,15.20
2016,04,21,18,04,15.10
2016,04,21,18,05,15.10
2016,04,21,18,06,15.00
2016,04,21,18,07,14.90
2016,04,21,18,08,14.80
2016,04,21,18,09,14.70
2016,04,21,18,10,14.70
2016,04,21,18,11,14.60
2016,04,21,18,12,14.50
2016,04,21,18,13,14.40
2016,04,21,18,14,14.40
2016,04,21,18,15,14.40
2016,04,21,18,16,14.30
2016,04,21,18,17,14.30
2016,04,21,18,18,14.30
2016,04,21,18,19,14.20
2016,04,21,18,20,14.20
2016,04,21,18,21,14.20
2016,04,21,18,22,14.20
2016,04,21,18,23,14.10
2016,04,21,18,24,14.10
2016,04,21,18,25,14.10
2016,04,21,18,26,14.10
2016,04,21,18,27,14.10
2016,04,21,18,28,14.10
2016,04,21,18,29,14.10
2016,04,21,18,30,14.10
2016,04,21,18,31,14.10
2016,04,21,18,32,14.10
2016,04,21,18,33,14.10
2016,04,21,18,34,14.10
2016,04,21,18,35,14.10
2016,04,21,18,36,14.10
2016,04,21,18,37,14.10
2016,04,21,18,38,14.20
2016,04,21,18,39,14.20
2016,04,21,18,40,14.20
2016,04,21,18,41,14.20
2016,04,21,18,42,14.20
2016,04,21,18,43,14.20
2016,04,21,18,44,14.20
2016,04,21,18,45,14.20
2016,04,21,18,46,14.20
2016,04,21,18,47,14.30
2016,04,21,18,48,14.30
2016,04,21,18,49,14.30
2016,04,21,18,50,14.30
2016,04,21,18,51,14.30
2016,04,21,18,52,14.30
2016,04,21,18,53,14.30
2016,04,21,18,54,14.30
2016,04,21,18,55,14.30
2016,04,21,18,56,14.30
2016,04,21,18,57,14.30
2016,04,21,18,58,14.30
2016,04,21,18,59,14.30
2016,04,21,19,00,14.30
2016,04,21,19,01,14.30
2016,04,21,19,02,14.30
2016,04,21,19,03,14.30
2016,04,21,19,04,14.30
2016,04,21,19,05,14.30
2016,04,21,19,06,14.30
2016,04,21,19,07,14.30
2016,04,21,19,08,14.30
2016,04,21,19,09,14.30
2016,04,21,19,10,14.30
2016,04,21,19,11,14.30
2016,04,21,19,12,14.30
2016,04,21,19,13,14.30
2016,04,21,19,14,14.30
2016,04,21,19,15,14.30
2016,04,21,19,16,14.30
2016,04,21,19,17,14.30
2016,04,21,19,18,14.30
2016,04,21,19,19,14.30
2016,04,21,19,20,14.30
2016,04,21,19,21,14.30
2016,04,21,19,22,14.30
2016,04,21,19,23,14.30
2016,04,21,19,24,14.30
2016,04,21,19,25,14.30
2016,04,21,19,26,14.20
2016,04,21,19,27,14.20
2016,04,21,19,28,14.20
2016,04,21,19,29,14.20
2016,04,21,19,30,14.20
2016,04,21,19,31,14.20
2016,04,21,19,32,14.20
2016,04,21,19,33,14.20
2016,04,21,19,34,14.20
2016,04,21,19,35,14.20
2016,04,21,19,36,14.20
2016,04,21,19,37,14.10
2016,04,21,19,38,14.10
2016,04,21,19,39,14.10
2016,04,21,19,40,14.10
2016,04,21,19,41,14.10
2016,04,21,19,42,14.10
2016,04,21,19,43,14.10
2016,04,21,19,44,14.10
2016,04,21,19,45,14.10
2016,04,21,19,46,14.10
2016,04,21,19,47,14.10
2016,04,21,19,48,14.10
2016,04,21,19,49,14.10
2016,04,21,19,50,14.10
2016,04,21,19,51,14.10
2016,04,21,19,52,14.10
2016,04,21,19,53,14.10
2016,04,21,19,54,14.10
2016,04,21,19,55,14.10
2016,04,21,19,56,14.10
2016,04,21,19,57,14.10
2016,04,21,19,58,14.10
2016,04,21,19,59,14.10
2016,04,21,20,00,14.00
2016,04,21,20,01,14.00
2016,04,21,20,02,14.00
2016,04,21,20,03,14.00
2016,04,21,20,04,14.00
2016,04,21,20,05,14.00
2016,04,21,20,06,14.00
2016,04,21,20,07,14.00
2016,04,21,20,08,14.00
2016,04,21,20,09,14.00
2016,04,21,20,10,14.00
2016,04,21,20,11,14.00
2016,04,21,20,12,14.00
2016,04,21,20,13,14.00
2016,04,21,20,14,14.00
2016,04,21,20,15,14.10
2016,04,21,20,16,14.10
2016,04,21,20,17,14.10
2016,04,21,20,18,14.10
2016,04,21,20,19,14.10
2016,04,21,20,20,14.10
2016,04,21,20,21,14.10
2016,04,21,20,22,14.00
2016,04,21,20,23,14.00
2016,04,21,20,24,14.00
2016,04,21,20,25,14.00
2016,04,21,20,26,13.90
2016,04,21,20,27,13.90
2016,04,21,20,28,13.90
2016,04,21,20,29,13.90
2016,04,21,20,30,13.80
2016,04,21,20,31,13.80
2016,04,21,20,32,13.80
2016,04,21,20,33,13.80
2016,04,21,20,34,13.70
2016,04,21,20,35,13.70
2016,04,21,20,36,13.70
2016,04,21,20,37,13.70
2016,04,21,20,38,13.60
2016,04,21,20,39,13.60
2016,04,21,20,40,13.60
2016,04,21,20,41,13.60
2016,04,21,20,42,13.60
2016,04,21,20,43,13.50
2016,04,21,20,44,13.50
2016,04,21,20,45,13.40
2016,04,21,20,46,13.40
2016,04,21,20,47,13.40
2016,04,21,20,48,13.40
2016,04,21,20,49,13.30
2016,04,21,20,50,13.30
2016,04,21,20,51,13.30
2016,04,21,20,52,13.20
2016,04,21,20,53,13.20
2016,04,21,20,54,13.20
2016,04,21,20,55,13.20
2016,04,21,20,56,13.20
2016,04,21,20,57,13.20
2016,04,21,20,58,13.20
2016,04,21,20,59,13.20
2016,04,21,21,00,13.20
2016,04,21,21,01,13.30
2016,04,21,21,02,13.30
2016,04,21,21,03,13.30
2016,04,21,21,04,13.30
2016,04,21,21,05,13.30
2016,04,21,21,06,13.20
2016,04,21,21,07,13.20
2016,04,21,21,08,13.20
2016,04,21,21,09,13.20
2016,04,21,21,10,13.20
2016,04,21,21,11,13.20
2016,04,21,21,12,13.20
2016,04,21,21,13,13.20
2016,04,21,21,14,13.20
2016,04,21,21,15,13.20
2016,04,21,21,16,13.20
2016,04,21,21,17,13.20
2016,04,21,21,18,13.20
2016,04,21,21,19,13.20
2016,04,21,21,20,13.20
2016,04,21,21,21,13.20
2016,04,21,21,22,13.20
2016,04,21,21,23,13.20
2016,04,21,21,24,13.20
2016,04,21,21,25,13.20
2016,04,21,21,26,13.20
2016,04,21,21,27,13.20
2016,04,21,21,28,13.10
2016,04,21,21,29,13.10
2016,04,21,21,30,13.10
2016,04,21,21,31,13.10
2016,04,21,21,32,13.10
2016,04,21,21,33,13.20
2016,04,21,21,34,13.20
2016,04,21,21,35,13.20
2016,04,21,21,36,13.20
2016,04,21,21,37,13.20
2016,04,21,21,38,13.20
2016,04,21,21,39,13.20
2016,04,21,21,40,13.20
2016,04,21,21,41,13.20
2016,04,21,21,42,13.20
2016,04,21,21,43,13.20
2016,04,21,21,44,13.30
2016,04,21,21,45,13.30
2016,04,21,21,46,13.30
2016,04,21,21,47,13.30
2016,04,21,21,48,13.30
2016,04,21,21,49,13.30
2016,04,21,21,50,13.30
2016,04,21,21,51,13.30
2016,04,21,21,52,13.30
2016,04,21,21,53,13.30
2016,04,21,21,54,13.30
2016,04,21,21,55,13.40
2016,04,21,21,56,13.40
2016,04,21,21,57,13.40
2016,04,21,21,58,13.40
2016,04,21,21,59,13.40
2016,04,21,22,00,13.40
2016,04,21,22,01,13.40
2016,04,21,22,02,13.50
2016,04,21,22,03,13.50
2016,04,21,22,04,13.50
2016,04,21,22,05,13.50
2016,04,21,22,06,13.60
2016,04,21,22,07,13.60
2016,04,21,22,08,13.60
2016,04,21,22,09,13.60
2016,04,21,22,10,13.60
2016,04,21,22,11,13.60
2016,04,21,22,12,13.60
2016,04,21,22,13,13.60
2016,04,21,22,14,13.60
2016,04,21,22,15,13.60
2016,04,21,22,16,13.60
2016,04,21,22,17,13.60
2016,04,21,22,18,13.60
2016,04,21,22,19,13.60
2016,04,21,22,20,13.60
2016,04,21,22,21,13.70
2016,04,21,22,22,13.70
2016,04,21,22,23,13.70
2016,04,21,22,24,13.70
2016,04,21,22,25,13.70
2016,04,21,22,26,13.70
2016,04,21,22,27,13.70
2016,04,21,22,28,13.80
2016,04,21,22,29,13.80
2016,04,21,22,30,13.80
2016,04,21,22,31,13.80
2016,04,21,22,32,13.80
2016,04,21,22,33,13.80
2016,04,21,22,34,13.90
2016,04,21,22,35,13.90
2016,04,21,22,36,14.00
2016,04,21,22,37,14.00
2016,04,21,22,38,14.00
2016,04,21,22,39,14.10
2016,04,21,22,40,14.10
2016,04,21,22,41,14.10
2016,04,21,22,42,14.20
2016,04,21,22,43,14.20
2016,04,21,22,44,14.20
2016,04,21,22,45,14.20
2016,04,21,22,46,14.20
2016,04,21,22,47,14.20
2016,04,21,22,48,14.30
2016,04,21,22,49,14.30
2016,04,21,22,50,14.30
2016,04,21,22,51,14.20
2016,04,21,22,52,14.20
2016,04,21,22,53,14.20
2016,04,21,22,54,14.20
2016,04,21,22,55,14.20
2016,04,21,22,56,14.30
2016,04,21,22,57,14.30
2016,04,21,22,58,14.30
2016,04,21,22,59,14.30
2016,04,21,23,00,14.30
2016,04,21,23,01,14.30
2016,04,21,23,02,14.30
2016,04,21,23,03,14.40
2016,04,21,23,04,14.40
2016,04,21,23,05,14.40
2016,04,21,23,06,14.40
2016,04,21,23,07,14.50
2016,04,21,23,08,14.50
2016,04,21,23,09,14.50
2016,04,21,23,10,14.50
2016,04,21,23,11,14.50
2016,04,21,23,12,14.60
2016,04,21,23,13,14.60
2016,04,21,23,14,14.60
2016,04,21,23,15,14.60
2016,04,21,23,16,14.60
2016,04,21,23,17,14.70
2016,04,21,23,18,14.60
2016,04,21,23,19,14.60
2016,04,21,23,20,14.60
2016,04,21,23,21,14.60
2016,04,21,23,22,14.60
2016,04,21,23,23,14.60
2016,04,21,23,24,14.60
2016,04,21,23,25,14.60
2016,04,21,23,26,14.60
2016,04,21,23,27,14.60
2016,04,21,23,28,14.50
2016,04,21,23,29,14.50
2016,04,21,23,30,14.50
2016,04,21,23,31,14.50
2016,04,21,23,32,14.50
2016,04,21,23,33,14.50
2016,04,21,23,34,14.40
2016,04,21,23,35,14.50
2016,04,21,23,36,14.50
2016,04,21,23,37,14.50
2016,04,21,23,38,14.50
2016,04,21,23,39,14.50
2016,04,21,23,40,14.50
2016,04,21,23,41,14.50
2016,04,21,23,42,14.50
2016,04,21,23,43,14.50
2016,04,21,23,44,14.40
2016,04,21,23,45,14.50
2016,04,21,23,46,14.50
2016,04,21,23,47,14.40
2016,04,21,23,48,14.40
2016,04,21,23,49,14.40
2016,04,21,23,50,14.40
2016,04,21,23,51,14.30
2016,04,21,23,52,14.30
2016,04,21,23,53,14.30
2016,04,21,23,54,14.30
2016,04,21,23,55,14.30
2016,04,21,23,56,14.30
2016,04,21,23,57,14.20
2016,04,21,23,58,14.20
2016,04,21,23,59,14.20
